Regional Weather Roundup
Issued by NWS Boston, MA

Current Version | Previous Version | Text Only | Print | Product List | Glossary Off
Versions: 1 2 3 4 5 6 7 8 9 10 11 12 13 14 15 16 17 18 19 20 21 22 23 24 25 26 27

000
ASUS41 KBOX 280010
RWRBOX

REGIONAL WEATHER ROUNDUP
NATIONAL WEATHER SERVICE TAUNTON MA
800 PM EDT TUE JUN 27 2017

NOTE:  "FAIR" INDICATES FEW OR NO CLOUDS BELOW 12,000 FEET WITH NO
SIGNIFICANT WEATHER AND/OR OBSTRUCTIONS TO VISIBILITY.

MAZALL-280100-
EASTERN MASSACHUSETTS

CITY           SKY/WX    TMP DP  RH WIND       PRES   REMARKS
BOSTON         CLOUDY    66  54  65 SW14      29.90S
6HR MIN TEMP:  65; 6HR MAX TEMP:  77; 6HR PCP:  0.01;

BEVERLY        CLOUDY    61  56  83 S3        29.90F
LAWRENCE       CLOUDY    63  57  81 VRB6      29.91F
BEDFORD        MOCLDY    59  55  87 NW6       29.90R
BLUE HILL        N/A     63  49  60 S9        29.91F
NORWOOD        PTCLDY    64  53  67 S3        29.91F
MARSHFIELD     CLOUDY    72  52  49 SW5       29.92S
PLYMOUTH       CLEAR     69  54  58 SW7       29.93S
TAUNTON        MOCLDY    70  60  70 S6        29.92R
NEW BEDFORD    CLEAR     67  59  75 S10       29.91F
$$

MAZALL-280100-
CAPE COD AND THE ISLANDS

CITY           SKY/WX    TMP DP  RH WIND       PRES   REMARKS
FALMOUTH       CLOUDY    68  57  68 S10G21    29.94S
HYANNIS        MOCLDY    69  61  75 S8G18     29.93S
CHATHAM        CLOUDY    64  61  90 CALM      29.96S
PROVINCETOWN   MOCLDY    67  60  78 S12       29.94S
NANTUCKET      PTCLDY    64  62  93 S7        29.95F
MARTHAS VNYRD  PTCLDY    67  61  81 S12       29.94S
$$

MAZALL-280100-
CENTRAL AND WESTERN MASSACHUSETTS

CITY           SKY/WX    TMP DP  RH WIND       PRES   REMARKS
WORCESTER      TSTM      57  48  72 W16G37    29.94R
6HR MIN TEMP:  53; 6HR MAX TEMP:  65; 6HR PCP:  0.90;

FITCHBURG      TSTM      66  58  75 SW9       29.93R
ORANGE         CLOUDY    56  55  97 S3        29.93F
SPRINGFIELD    PTCLDY    62  52  71 N5        29.94R
WESTFIELD      PTCLDY    62  52  69 CALM      29.94R
NORTH ADAMS    PTCLDY    57  53  86 W6        29.94F
PITTSFIELD     PTCLDY    56  52  86 SW7       29.94F
$$

RIZALL-280100-
RHODE ISLAND

CITY           SKY/WX    TMP DP  RH WIND       PRES   REMARKS
PROVIDENCE     MOCLDY    70  64  81 SW8       29.92R
6HR MIN TEMP:  70; 6HR MAX TEMP:  76;

NEWPORT        MOCLDY    67  64  90 S7        29.92S
BLOCK ISLAND   CLEAR     67  64  90 SW14      29.93F
WESTERLY       CLEAR     69  61  75 SW10      29.93R
$$

CTZALL-280100-
CONNECTICUT

CITY           SKY/WX    TMP DP  RH WIND       PRES   REMARKS
BRADLEY INTL   MOCLDY    67  52  58 N8        29.94R
6HR MIN TEMP:  61; 6HR MAX TEMP:  75; 6HR PCP:  0.20;

HARTFORD       MOCLDY    66  58  75 CALM      29.93R
BRIDGEPORT     PTCLDY    71  55  56 SW8       29.94S
DANBURY        CLEAR     69  48  47 W6        29.96R
GROTON         PTCLDY    67  60  78 SW12      29.92R
NEW HAVEN      CLOUDY    69  52  54 SW8       29.94R
CHESTER        FAIR      70  59  68 VRB5G12   29.94R
MERIDEN        CLOUDY    66  62  87 SW5       29.93R
WILLIMANTIC    LGT RAIN  61  58  90 E8        29.94S FOG
OXFORD         PTCLDY    66  46  48 NW8       29.97R
$$

MEZ002-015-021-024-NHZ003-005-008-011-012-014-VTZ005-008-280100-
NORTHERN NEW ENGLAND

CITY           SKY/WX    TMP DP  RH WIND       PRES   REMARKS
PORTLAND ME    LGT RAIN  61  58  90 VRB7      29.93S
6HR MIN TEMP:  60; 6HR MAX TEMP:  74; 6HR PCP:  0.04;

BANGOR ME      TSTM      61  59  93 S9        29.96R FOG
CONCORD NH     LGT RAIN  56  55  97 SE5       29.93R
MANCHESTER NH  MOCLDY    64  51  62 N16       29.91R THUNDER
NASHUA NH      CLOUDY    64  61  88 MISG        N/A
PORTSMOUTH NH  MOCLDY    63  58  85 W3        29.89S
JAFFREY NH     HVY RAIN  58  55  90 VRB6G21   29.97R
KEENE NH       LGT RAIN  59  56  89 E5        29.92S
BURLINGTON VT  LGT RAIN  57  54  89 SE6       29.89F
MT. WASHINGTON FOG       39  39 100 W20         N/A  VSB 1/16WCI  30
$$

NYZ052-076-280100-
EASTERN NEW YORK

CITY           SKY/WX    TMP DP  RH WIND       PRES   REMARKS
ALBANY         PTCLDY    62  51  67 W10       29.96R
6HR MIN TEMP:  62; 6HR MAX TEMP:  71; 6HR PCP: TRACE;

NEW YORK CITY  MOCLDY    74  51  44 NW15G24   29.94R
6HR MIN TEMP:  74; 6HR MAX TEMP:  79;

$$

ANZALL-280100-
MARINE OBSERVATIONS

STATION/POSITION TIME  TEMP    WIND        PRES    VSBY  WAVE
                       AIR SEA DIR/SP/G                  HT/PER
                 (UTC) (F)     (DEG/KT/KT) (MB)    (MI)  (FT/S)
BOSTON BUOY      2350   63 60  330/  6/ 10 1013.4R         2/ 3
BUZZARDS BAY     2300   65     190/ 15/ 16 1013.6F
NANTUCKET SOUND  2350      64              1013.7R         1/ 3
MASS BAY-STELLWA NOT AVBL
ISLE OF SHOALS   2300   62     180/ 19/ 20 1012.5F
S OF BLOCK IS    2355      65                N/A           2/ 7
$$

......................KEY.........................
  SKY/WX - SKY CONDITION/PRESENT WEATHER
  TMP    - TEMPERATURE IN FAHRENHEIT
  DWPT   - DEWPOINT IN FAHRENHEIT
  RH     - RELATIVE HUMIDITY IN PERCENT
  WIND   - DIRECTION AND SPEED IN MPH
  PRES   - MEAN SEA LEVEL PRESSURE IN INCHES OF HG
  WCI    - WIND CHILL INDEX
  VSB    - VISIBILITY IN MILES
  HX     - HEAT INDEX
  TC     - TEMPERATURE IN CELSIUS
  VRB    - VARIABLE WIND DIRECTION
  N/A    - NOT AVAILABLE




USA.gov is the U.S. government's official web portal to all federal, state and local government web resources and services.